Time,TemperatureF,DewpointF,PressureIn,WindDirection,WindDirectionDegrees,WindSpeedMPH,WindSpeedGustMPH,Humidity,HourlyPrecipIn,Conditions,Clouds,dailyrainin,SoftwareType,DateUTC
2013-02-07 00:03:00,18.4,18.4,30.22,SE,134,4.0,4.0,100,0.00,,,0.00,Wunderground v.1.13,2013-02-07 05:03:00,
2013-02-07 00:12:00,18.0,18.0,30.23,ESE,117,3.0,3.0,100,0.00,,,0.00,Wunderground v.1.13,2013-02-07 05:12:00,
2013-02-07 00:22:00,17.8,17.8,30.23,SE,133,2.0,2.0,100,0.00,,,0.00,Wunderground v.1.13,2013-02-07 05:22:00,
2013-02-07 00:27:00,17.7,17.7,30.23,SE,133,1.0,1.0,100,0.00,,,0.00,Wunderground v.1.13,2013-02-07 05:27:00,
2013-02-07 00:32:00,17.3,17.3,30.23,SE,131,1.0,1.0,100,0.00,,,0.00,Wunderground v.1.13,2013-02-07 05:32:00,
2013-02-07 00:37:00,17.3,17.3,30.23,SE,124,1.0,1.0,100,0.00,,,0.00,Wunderground v.1.13,2013-02-07 05:37:00,
2013-02-07 00:42:00,17.2,17.2,30.23,SE,124,1.0,1.0,100,0.00,,,0.00,Wunderground v.1.13,2013-02-07 05:42:00,
2013-02-07 00:47:00,17.0,17.0,30.23,SE,124,1.0,1.0,100,0.00,,,0.00,Wunderground v.1.13,2013-02-07 05:47:00,
2013-02-07 00:52:00,16.7,16.7,30.23,SE,124,1.0,1.0,100,0.00,,,0.00,Wunderground v.1.13,2013-02-07 05:52:00,
2013-02-07 00:57:00,16.5,16.5,30.23,SE,130,1.0,1.0,100,0.00,,,0.00,Wunderground v.1.13,2013-02-07 05:57:00,
2013-02-07 01:03:00,16.4,16.4,30.23,East,80,1.0,3.0,100,0.00,,,0.00,Wunderground v.1.13,2013-02-07 06:03:00,
2013-02-07 01:12:00,16.4,16.4,30.24,SE,127,3.0,3.0,100,0.00,,,0.00,Wunderground v.1.13,2013-02-07 06:12:00,
2013-02-07 01:22:00,16.4,16.4,30.25,SE,130,1.0,2.0,100,0.00,,,0.00,Wunderground v.1.13,2013-02-07 06:22:00,
2013-02-07 01:27:00,16.4,16.4,30.25,ESE,112,1.0,3.0,100,0.00,,,0.00,Wunderground v.1.13,2013-02-07 06:27:00,
2013-02-07 01:32:00,16.4,16.4,30.25,SSE,152,1.0,1.0,100,0.00,,,0.00,Wunderground v.1.13,2013-02-07 06:32:00,
2013-02-07 01:37:00,16.4,16.4,30.25,SSE,152,1.0,1.0,100,0.00,,,0.00,Wunderground v.1.13,2013-02-07 06:37:00,
2013-02-07 01:47:00,16.2,16.2,30.25,SSE,152,1.0,1.0,100,0.00,,,0.00,Wunderground v.1.13,2013-02-07 06:47:00,
2013-02-07 01:52:00,16.1,16.1,30.25,SSE,152,0.0,0.0,100,0.00,,,0.00,Wunderground v.1.13,2013-02-07 06:52:00,
2013-02-07 01:57:00,15.7,15.7,30.25,SSE,152,0.0,1.0,100,0.00,,,0.00,Wunderground v.1.13,2013-02-07 06:57:00,
2013-02-07 02:03:00,15.7,15.7,30.25,SSE,152,0.0,2.0,100,0.00,,,0.00,Wunderground v.1.13,2013-02-07 07:03:00,
2013-02-07 02:07:00,15.7,15.7,30.25,SE,130,1.0,1.0,100,0.00,,,0.00,Wunderground v.1.13,2013-02-07 07:07:00,
2013-02-07 02:12:00,15.7,15.7,30.25,ESE,112,2.0,2.0,100,0.00,,,0.00,Wunderground v.1.13,2013-02-07 07:12:00,
2013-02-07 02:22:00,15.4,15.4,30.25,ESE,112,0.0,0.0,100,0.00,,,0.00,Wunderground v.1.13,2013-02-07 07:22:00,
2013-02-07 02:32:00,15.1,15.1,30.25,ESE,112,0.0,0.0,100,0.00,,,0.00,Wunderground v.1.13,2013-02-07 07:32:00,
2013-02-07 02:37:00,14.9,14.9,30.26,ESE,112,0.0,0.0,100,0.00,,,0.00,Wunderground v.1.13,2013-02-07 07:37:00,
2013-02-07 02:42:00,14.6,14.6,30.26,ESE,112,0.0,0.0,100,0.00,,,0.00,Wunderground v.1.13,2013-02-07 07:42:00,
2013-02-07 02:47:00,14.3,14.3,30.26,ESE,112,0.0,0.0,100,0.00,,,0.00,Wunderground v.1.13,2013-02-07 07:47:00,
2013-02-07 02:52:00,14.0,14.0,30.26,ESE,112,0.0,0.0,100,0.00,,,0.00,Wunderground v.1.13,2013-02-07 07:52:00,
2013-02-07 02:57:00,13.8,13.8,30.26,ESE,112,0.0,0.0,100,0.00,,,0.00,Wunderground v.1.13,2013-02-07 07:57:00,
2013-02-07 03:03:00,13.6,13.6,30.26,ESE,112,0.0,0.0,100,0.00,,,0.00,Wunderground v.1.13,2013-02-07 08:03:00,
2013-02-07 03:12:00,13.3,13.3,30.26,ESE,112,0.0,0.0,100,0.00,,,0.00,Wunderground v.1.13,2013-02-07 08:12:00,
2013-02-07 03:17:00,13.1,13.1,30.26,ESE,112,0.0,0.0,100,0.00,,,0.00,Wunderground v.1.13,2013-02-07 08:17:00,
2013-02-07 03:22:00,13.1,13.1,30.26,ESE,112,0.0,0.0,100,0.00,,,0.00,Wunderground v.1.13,2013-02-07 08:22:00,
2013-02-07 03:27:00,12.9,12.9,30.26,ESE,112,0.0,1.0,100,0.00,,,0.00,Wunderground v.1.13,2013-02-07 08:27:00,
2013-02-07 03:32:00,12.9,12.9,30.26,ESE,112,0.0,2.0,100,0.00,,,0.00,Wunderground v.1.13,2013-02-07 08:32:00,
2013-02-07 03:37:00,13.1,13.1,30.27,ESE,112,0.0,0.0,100,0.00,,,0.00,Wunderground v.1.13,2013-02-07 08:37:00,
2013-02-07 03:42:00,13.3,13.3,30.27,ESE,112,1.0,1.0,100,0.00,,,0.00,Wunderground v.1.13,2013-02-07 08:42:00,
2013-02-07 03:47:00,13.3,13.3,30.27,ESE,112,1.0,1.0,100,0.00,,,0.00,Wunderground v.1.13,2013-02-07 08:47:00,
2013-02-07 03:52:00,13.3,13.3,30.28,ESE,112,0.0,0.0,100,0.00,,,0.00,Wunderground v.1.13,2013-02-07 08:52:00,
2013-02-07 03:57:00,13.1,13.1,30.28,ESE,112,0.0,0.0,100,0.00,,,0.00,Wunderground v.1.13,2013-02-07 08:57:00,
2013-02-07 04:02:00,13.1,13.1,30.28,ESE,112,0.0,0.0,100,0.00,,,0.00,Wunderground v.1.13,2013-02-07 09:02:00,
2013-02-07 04:07:00,12.9,12.9,30.30,ESE,112,0.0,0.0,100,0.00,,,0.00,Wunderground v.1.13,2013-02-07 09:07:00,
2013-02-07 04:17:00,12.8,12.8,30.30,ESE,112,0.0,1.0,100,0.00,,,0.00,Wunderground v.1.13,2013-02-07 09:17:00,
2013-02-07 04:22:00,12.6,12.6,30.31,ESE,112,0.0,0.0,100,0.00,,,0.00,Wunderground v.1.13,2013-02-07 09:22:00,
2013-02-07 04:27:00,12.4,12.4,30.31,ESE,112,0.0,1.0,100,0.00,,,0.00,Wunderground v.1.13,2013-02-07 09:27:00,
2013-02-07 04:32:00,12.3,12.3,30.31,ESE,112,1.0,1.0,100,0.00,,,0.00,Wunderground v.1.13,2013-02-07 09:32:00,
2013-02-07 04:37:00,12.1,12.1,30.32,ESE,112,1.0,1.0,100,0.00,,,0.00,Wunderground v.1.13,2013-02-07 09:37:00,
2013-02-07 04:42:00,11.9,11.9,30.32,ESE,112,1.0,2.0,100,0.00,,,0.00,Wunderground v.1.13,2013-02-07 09:42:00,
2013-02-07 04:47:00,11.7,-99.9,30.32,ESE,112,0.0,0.0,0,0.00,,,0.00,Wunderground v.1.13,2013-02-07 09:47:00,
2013-02-07 04:52:00,11.7,11.7,30.32,ESE,112,0.0,0.0,100,0.00,,,0.00,Wunderground v.1.13,2013-02-07 09:52:00,
2013-02-07 04:57:00,11.6,11.6,30.32,ESE,112,0.0,0.0,100,0.00,,,0.00,Wunderground v.1.13,2013-02-07 09:57:00,
2013-02-07 05:02:00,11.4,11.4,30.32,ESE,112,0.0,0.0,100,0.00,,,0.00,Wunderground v.1.13,2013-02-07 10:02:00,
2013-02-07 05:07:00,11.2,-99.9,30.32,ESE,112,0.0,0.0,0,0.00,,,0.00,Wunderground v.1.13,2013-02-07 10:07:00,
2013-02-07 05:17:00,10.7,-99.9,30.32,ESE,112,0.0,0.0,0,0.00,,,0.00,Wunderground v.1.13,2013-02-07 10:17:00,
2013-02-07 05:22:00,10.5,-99.9,30.33,ESE,112,0.0,0.0,0,0.00,,,0.00,Wunderground v.1.13,2013-02-07 10:22:00,
2013-02-07 05:27:00,10.4,-99.9,30.33,ESE,112,0.0,0.0,0,0.00,,,0.00,Wunderground v.1.13,2013-02-07 10:27:00,
2013-02-07 05:32:00,10.4,-99.9,30.33,ESE,112,0.0,0.0,0,0.00,,,0.00,Wunderground v.1.13,2013-02-07 10:32:00,
2013-02-07 05:37:00,10.2,-99.9,30.33,ESE,112,0.0,0.0,0,0.00,,,0.00,Wunderground v.1.13,2013-02-07 10:37:00,
2013-02-07 05:42:00,10.2,-99.9,30.33,ESE,112,0.0,0.0,0,0.00,,,0.00,Wunderground v.1.13,2013-02-07 10:42:00,
2013-02-07 05:47:00,10.0,-99.9,30.33,ESE,112,0.0,0.0,0,0.00,,,0.00,Wunderground v.1.13,2013-02-07 10:47:00,
2013-02-07 05:57:00,9.9,-99.9,30.34,ESE,112,0.0,0.0,0,0.00,,,0.00,Wunderground v.1.13,2013-02-07 10:57:00,
2013-02-07 06:02:00,9.7,-99.9,30.34,ESE,112,0.0,0.0,0,0.00,,,0.00,Wunderground v.1.13,2013-02-07 11:02:00,
2013-02-07 06:07:00,9.5,-99.9,30.34,ESE,112,0.0,0.0,0,0.00,,,0.00,Wunderground v.1.13,2013-02-07 11:07:00,
2013-02-07 06:12:00,9.3,-99.9,30.34,ESE,112,0.0,0.0,0,0.00,,,0.00,Wunderground v.1.13,2013-02-07 11:12:00,
2013-02-07 06:17:00,9.5,-99.9,30.34,ESE,112,0.0,0.0,0,0.00,,,0.00,Wunderground v.1.13,2013-02-07 11:17:00,
2013-02-07 06:22:00,9.5,-99.9,30.35,ESE,112,1.0,2.0,0,0.00,,,0.00,Wunderground v.1.13,2013-02-07 11:22:00,
2013-02-07 06:27:00,9.5,-99.9,30.35,ESE,112,1.0,1.0,0,0.00,,,0.00,Wunderground v.1.13,2013-02-07 11:27:00,
2013-02-07 06:32:00,9.7,-99.9,30.35,ESE,112,0.0,0.0,0,0.00,,,0.00,Wunderground v.1.13,2013-02-07 11:32:00,
2013-02-07 06:37:00,9.7,-99.9,30.36,ESE,112,0.0,1.0,0,0.00,,,0.00,Wunderground v.1.13,2013-02-07 11:37:00,
2013-02-07 06:42:00,9.9,-99.9,30.36,ESE,112,1.0,2.0,0,0.00,,,0.00,Wunderground v.1.13,2013-02-07 11:42:00,
2013-02-07 06:47:00,10.2,-99.9,30.36,ESE,112,1.0,1.0,0,0.00,,,0.00,Wunderground v.1.13,2013-02-07 11:47:00,
2013-02-07 06:52:00,10.4,-99.9,30.36,ESE,112,1.0,1.0,0,0.00,,,0.00,Wunderground v.1.13,2013-02-07 11:52:00,
2013-02-07 06:57:00,10.4,-99.9,30.36,SSE,162,1.0,3.0,0,0.00,,,0.00,Wunderground v.1.13,2013-02-07 11:57:00,
2013-02-07 07:03:00,10.7,10.7,30.36,SE,130,2.0,3.0,100,0.00,,,0.00,Wunderground v.1.13,2013-02-07 12:03:00,
2013-02-07 07:12:00,11.1,11.1,30.38,SE,138,3.0,4.0,100,0.00,,,0.00,Wunderground v.1.13,2013-02-07 12:12:00,
2013-02-07 07:17:00,11.1,11.1,30.38,SE,127,2.0,2.0,100,0.00,,,0.00,Wunderground v.1.13,2013-02-07 12:17:00,
2013-02-07 07:27:00,11.4,11.4,30.39,ESE,119,3.0,5.0,100,0.00,,,0.00,Wunderground v.1.13,2013-02-07 12:27:00,
2013-02-07 07:32:00,11.6,11.6,30.39,ESE,120,4.0,6.0,100,0.00,,,0.00,Wunderground v.1.13,2013-02-07 12:32:00,
2013-02-07 07:37:00,11.6,11.6,30.41,SE,144,5.0,5.0,100,0.00,,,0.00,Wunderground v.1.13,2013-02-07 12:37:00,
2013-02-07 07:42:00,11.7,11.7,30.41,SE,143,4.0,4.0,100,0.00,,,0.00,Wunderground v.1.13,2013-02-07 12:42:00,
2013-02-07 07:52:00,11.9,11.9,30.41,SE,130,4.0,4.0,100,0.00,,,0.00,Wunderground v.1.13,2013-02-07 12:52:00,
2013-02-07 07:57:00,12.1,12.1,30.41,SSW,196,3.0,3.0,100,0.00,,,0.00,Wunderground v.1.13,2013-02-07 12:57:00,
2013-02-07 08:03:00,12.3,12.3,30.41,ESE,104,3.0,6.0,100,0.00,,,0.00,Wunderground v.1.13,2013-02-07 13:03:00,
2013-02-07 08:12:00,12.4,12.4,30.43,ESE,117,4.0,4.0,100,0.00,,,0.00,Wunderground v.1.13,2013-02-07 13:12:00,
2013-02-07 08:17:00,12.6,12.6,30.43,SSE,148,3.0,5.0,100,0.00,,,0.00,Wunderground v.1.13,2013-02-07 13:17:00,
2013-02-07 08:22:00,12.4,12.4,30.43,SE,127,4.0,4.0,100,0.00,,,0.00,Wunderground v.1.13,2013-02-07 13:22:00,
2013-02-07 08:27:00,12.4,12.4,30.43,SSW,198,5.0,5.0,100,0.00,,,0.00,Wunderground v.1.13,2013-02-07 13:27:00,
2013-02-07 08:32:00,12.9,12.9,30.43,SE,145,3.0,4.0,100,0.00,,,0.00,Wunderground v.1.13,2013-02-07 13:32:00,
2013-02-07 08:37:00,12.9,12.9,30.44,SSE,148,3.0,6.0,100,0.00,,,0.00,Wunderground v.1.13,2013-02-07 13:37:00,
2013-02-07 08:42:00,12.8,12.8,30.44,SE,136,4.0,5.0,100,0.00,,,0.00,Wunderground v.1.13,2013-02-07 13:42:00,
2013-02-07 08:47:00,12.8,12.8,30.44,SSE,154,5.0,5.0,100,0.00,,,0.00,Wunderground v.1.13,2013-02-07 13:47:00,
2013-02-07 08:52:00,13.1,13.1,30.44,SE,134,4.0,4.0,100,0.00,,,0.00,Wunderground v.1.13,2013-02-07 13:52:00,
2013-02-07 08:57:00,13.6,13.6,30.44,ESE,121,4.0,4.0,100,0.00,,,0.00,Wunderground v.1.13,2013-02-07 13:57:00,
2013-02-07 09:02:00,14.1,14.1,30.44,SE,131,2.0,5.0,100,0.00,,,0.00,Wunderground v.1.13,2013-02-07 14:02:00,
2013-02-07 09:07:00,14.1,14.1,30.44,SSE,155,3.0,3.0,100,0.00,,,0.00,Wunderground v.1.13,2013-02-07 14:07:00,
2013-02-07 09:17:00,14.4,14.4,30.44,SE,136,3.0,3.0,100,0.00,,,0.00,Wunderground v.1.13,2013-02-07 14:17:00,
2013-02-07 09:22:00,14.8,14.8,30.45,East,93,2.0,6.0,100,0.00,,,0.00,Wunderground v.1.13,2013-02-07 14:22:00,
2013-02-07 09:27:00,14.8,14.8,30.45,SSE,147,3.0,5.0,100,0.00,,,0.00,Wunderground v.1.13,2013-02-07 14:27:00,
2013-02-07 09:32:00,15.1,15.1,30.45,ENE,73,3.0,3.0,100,0.00,,,0.00,Wunderground v.1.13,2013-02-07 14:32:00,
2013-02-07 09:37:00,15.7,15.7,30.45,SE,143,1.0,1.0,100,0.00,,,0.00,Wunderground v.1.13,2013-02-07 14:37:00,
2013-02-07 09:42:00,15.9,15.9,30.45,SE,140,2.0,2.0,100,0.00,,,0.00,Wunderground v.1.13,2013-02-07 14:42:00,
2013-02-07 09:47:00,16.4,16.4,30.45,South,169,2.0,3.0,100,0.00,,,0.00,Wunderground v.1.13,2013-02-07 14:47:00,
2013-02-07 09:52:00,16.4,16.4,30.45,SE,126,2.0,3.0,100,0.00,,,0.00,Wunderground v.1.13,2013-02-07 14:52:00,
2013-02-07 09:57:00,16.4,16.4,30.45,ESE,112,2.0,2.0,100,0.00,,,0.00,Wunderground v.1.13,2013-02-07 14:57:00,
2013-02-07 10:02:00,16.5,16.5,30.45,SSE,151,3.0,3.0,100,0.00,,,0.00,Wunderground v.1.13,2013-02-07 15:02:00,
2013-02-07 10:07:00,16.9,16.9,30.45,SE,134,2.0,2.0,100,0.00,,,0.00,Wunderground v.1.13,2013-02-07 15:07:00,
2013-02-07 10:12:00,17.3,17.3,30.45,South,169,2.0,2.0,100,0.00,,,0.00,Wunderground v.1.13,2013-02-07 15:12:00,
2013-02-07 10:17:00,17.8,17.8,30.45,SSE,167,2.0,2.0,100,0.00,,,0.00,Wunderground v.1.13,2013-02-07 15:17:00,
2013-02-07 10:22:00,18.1,18.1,30.46,SE,128,1.0,1.0,100,0.00,,,0.00,Wunderground v.1.13,2013-02-07 15:22:00,
2013-02-07 10:27:00,18.0,18.0,30.46,SSW,206,2.0,4.0,100,0.00,,,0.00,Wunderground v.1.13,2013-02-07 15:27:00,
2013-02-07 10:32:00,17.8,17.8,30.46,East,99,3.0,4.0,100,0.00,,,0.00,Wunderground v.1.13,2013-02-07 15:32:00,
2013-02-07 10:37:00,18.0,18.0,30.46,ESE,112,3.0,3.0,100,0.00,,,0.00,Wunderground v.1.13,2013-02-07 15:37:00,
2013-02-07 10:42:00,18.0,18.0,30.46,ESE,123,3.0,3.0,100,0.00,,,0.00,Wunderground v.1.13,2013-02-07 15:42:00,
2013-02-07 10:47:00,18.0,18.0,30.46,SSE,147,3.0,5.0,100,0.00,,,0.00,Wunderground v.1.13,2013-02-07 15:47:00,
2013-02-07 10:52:00,18.0,18.0,30.47,SE,133,4.0,4.0,100,0.00,,,0.00,Wunderground v.1.13,2013-02-07 15:52:00,
2013-02-07 10:57:00,18.3,18.3,30.47,SE,134,5.0,5.0,100,0.00,,,0.00,Wunderground v.1.13,2013-02-07 15:57:00,
2013-02-07 11:02:00,18.4,18.4,30.47,SE,136,4.0,4.0,100,0.00,,,0.00,Wunderground v.1.13,2013-02-07 16:02:00,
2013-02-07 11:07:00,18.6,18.6,30.46,ESE,106,5.0,5.0,100,0.00,,,0.00,Wunderground v.1.13,2013-02-07 16:07:00,
2013-02-07 11:12:00,18.3,18.3,30.46,ESE,106,5.0,5.0,100,0.00,,,0.00,Wunderground v.1.13,2013-02-07 16:12:00,
2013-02-07 11:17:00,18.4,18.4,30.46,SSE,162,5.0,5.0,100,0.00,,,0.00,Wunderground v.1.13,2013-02-07 16:17:00,
2013-02-07 11:22:00,19.1,19.1,30.45,SSW,200,2.0,5.0,100,0.00,,,0.00,Wunderground v.1.13,2013-02-07 16:22:00,
2013-02-07 11:27:00,19.4,19.4,30.45,East,79,3.0,7.0,100,0.00,,,0.00,Wunderground v.1.13,2013-02-07 16:27:00,
2013-02-07 11:32:00,19.7,19.7,30.45,SE,141,4.0,7.0,100,0.00,,,0.00,Wunderground v.1.13,2013-02-07 16:32:00,
2013-02-07 11:37:00,19.7,19.7,30.45,SE,124,4.0,5.0,100,0.00,,,0.00,Wunderground v.1.13,2013-02-07 16:37:00,
2013-02-07 11:42:00,20.3,20.3,30.45,East,80,3.0,9.0,100,0.00,,,0.00,Wunderground v.1.13,2013-02-07 16:42:00,
2013-02-07 11:47:00,20.3,20.3,30.45,SE,138,3.0,3.0,100,0.00,,,0.00,Wunderground v.1.13,2013-02-07 16:47:00,
2013-02-07 11:57:00,20.3,20.3,30.44,SE,144,4.0,4.0,100,0.00,,,0.00,Wunderground v.1.13,2013-02-07 16:57:00,
2013-02-07 12:03:00,20.8,20.8,30.44,SE,145,3.0,4.0,100,0.00,,,0.00,Wunderground v.1.13,2013-02-07 17:03:00,
2013-02-07 12:12:00,21.1,21.1,30.43,ENE,72,5.0,7.0,100,0.00,,,0.00,Wunderground v.1.13,2013-02-07 17:12:00,
2013-02-07 12:17:00,21.1,21.1,30.43,SE,134,6.0,6.0,100,0.00,,,0.00,Wunderground v.1.13,2013-02-07 17:17:00,
2013-02-07 12:22:00,21.1,21.1,30.43,ESE,109,4.0,5.0,100,0.00,,,0.00,Wunderground v.1.13,2013-02-07 17:22:00,
2013-02-07 12:27:00,21.8,21.8,30.43,ESE,107,2.0,2.0,100,0.00,,,0.00,Wunderground v.1.13,2013-02-07 17:27:00,
2013-02-07 12:32:00,22.4,22.4,30.43,ESE,116,2.0,4.0,100,0.00,,,0.00,Wunderground v.1.13,2013-02-07 17:32:00,
2013-02-07 12:37:00,22.5,22.5,30.42,SE,136,3.0,3.0,100,0.00,,,0.00,Wunderground v.1.13,2013-02-07 17:37:00,
2013-02-07 12:42:00,22.5,22.5,30.42,SE,141,4.0,4.0,100,0.00,,,0.00,Wunderground v.1.13,2013-02-07 17:42:00,
2013-02-07 12:47:00,22.7,22.7,30.42,ESE,113,4.0,5.0,100,0.00,,,0.00,Wunderground v.1.13,2013-02-07 17:47:00,
2013-02-07 12:52:00,22.7,22.7,30.42,ESE,112,5.0,5.0,100,0.00,,,0.00,Wunderground v.1.13,2013-02-07 17:52:00,
2013-02-07 12:57:00,23.0,23.0,30.42,ESE,109,4.0,4.0,100,0.00,,,0.00,Wunderground v.1.13,2013-02-07 17:57:00,
2013-02-07 13:03:00,23.5,23.5,30.42,East,97,3.0,5.0,100,0.00,,,0.00,Wunderground v.1.13,2013-02-07 18:03:00,
2013-02-07 13:12:00,23.9,23.9,30.41,ESE,117,3.0,3.0,100,0.00,,,0.00,Wunderground v.1.13,2013-02-07 18:12:00,
2013-02-07 13:17:00,24.4,24.4,30.41,SE,131,3.0,3.0,100,0.00,,,0.00,Wunderground v.1.13,2013-02-07 18:17:00,
2013-02-07 13:22:00,24.5,24.5,30.41,SE,138,2.0,2.0,100,0.00,,,0.00,Wunderground v.1.13,2013-02-07 18:22:00,
2013-02-07 13:27:00,24.5,24.5,30.41,ESE,123,3.0,3.0,100,0.00,,,0.00,Wunderground v.1.13,2013-02-07 18:27:00,
2013-02-07 13:32:00,24.5,24.5,30.41,ESE,104,2.0,2.0,100,0.00,,,0.00,Wunderground v.1.13,2013-02-07 18:32:00,
2013-02-07 13:37:00,24.8,24.8,30.40,SW,234,2.0,2.0,100,0.00,,,0.00,Wunderground v.1.13,2013-02-07 18:37:00,
2013-02-07 13:42:00,25.1,25.1,30.40,SSE,161,2.0,2.0,100,0.00,,,0.00,Wunderground v.1.13,2013-02-07 18:42:00,
2013-02-07 13:47:00,25.4,25.4,30.40,SE,133,1.0,1.0,100,0.00,,,0.00,Wunderground v.1.13,2013-02-07 18:47:00,
2013-02-07 13:52:00,25.0,25.0,30.40,East,89,3.0,3.0,100,0.00,,,0.00,Wunderground v.1.13,2013-02-07 18:52:00,
2013-02-07 13:57:00,24.8,24.8,30.40,East,100,3.0,3.0,100,0.00,,,0.00,Wunderground v.1.13,2013-02-07 18:57:00,
2013-02-07 14:03:00,25.1,25.1,30.40,East,99,2.0,3.0,100,0.00,,,0.00,Wunderground v.1.13,2013-02-07 19:03:00,
2013-02-07 14:07:00,25.3,25.3,30.40,SE,137,3.0,6.0,100,0.00,,,0.00,Wunderground v.1.13,2013-02-07 19:07:00,
2013-02-07 14:12:00,25.0,25.0,30.40,East,79,4.0,6.0,100,0.00,,,0.00,Wunderground v.1.13,2013-02-07 19:12:00,
2013-02-07 14:17:00,25.1,25.1,30.40,ESE,106,3.0,3.0,100,0.00,,,0.00,Wunderground v.1.13,2013-02-07 19:17:00,
2013-02-07 14:22:00,25.3,25.3,30.39,ESE,119,3.0,3.0,100,0.00,,,0.00,Wunderground v.1.13,2013-02-07 19:22:00,
2013-02-07 14:27:00,25.3,25.3,30.39,ESE,103,3.0,3.0,100,0.00,,,0.00,Wunderground v.1.13,2013-02-07 19:27:00,
2013-02-07 14:32:00,25.4,25.4,30.39,SW,233,2.0,2.0,100,0.00,,,0.00,Wunderground v.1.13,2013-02-07 19:32:00,
2013-02-07 14:37:00,25.3,25.3,30.39,SE,133,2.0,2.0,100,0.00,,,0.00,Wunderground v.1.13,2013-02-07 19:37:00,
2013-02-07 14:42:00,25.1,25.1,30.39,SE,130,2.0,2.0,100,0.00,,,0.00,Wunderground v.1.13,2013-02-07 19:42:00,
2013-02-07 14:52:00,25.1,25.1,30.39,SE,124,2.0,2.0,100,0.00,,,0.00,Wunderground v.1.13,2013-02-07 19:52:00,
2013-02-07 14:57:00,25.3,25.3,30.39,ESE,123,1.0,1.0,100,0.00,,,0.00,Wunderground v.1.13,2013-02-07 19:57:00,
2013-02-07 15:03:00,25.4,25.4,30.39,ESE,110,1.0,1.0,100,0.00,,,0.00,Wunderground v.1.13,2013-02-07 20:03:00,
2013-02-07 15:12:00,25.3,25.3,30.39,SE,134,1.0,1.0,100,0.00,,,0.00,Wunderground v.1.13,2013-02-07 20:12:00,
2013-02-07 15:17:00,25.1,25.1,30.39,ESE,120,1.0,4.0,100,0.00,,,0.00,Wunderground v.1.13,2013-02-07 20:17:00,
2013-02-07 15:22:00,24.8,24.8,30.39,SE,128,2.0,2.0,100,0.00,,,0.00,Wunderground v.1.13,2013-02-07 20:22:00,
2013-02-07 15:27:00,24.7,24.7,30.39,ESE,102,2.0,2.0,100,0.00,,,0.00,Wunderground v.1.13,2013-02-07 20:27:00,
2013-02-07 15:32:00,24.8,24.8,30.39,ESE,104,2.0,2.0,100,0.00,,,0.00,Wunderground v.1.13,2013-02-07 20:32:00,
2013-02-07 15:37:00,24.8,24.8,30.39,SSE,162,2.0,2.0,100,0.00,,,0.00,Wunderground v.1.13,2013-02-07 20:37:00,
2013-02-07 15:42:00,24.8,24.8,30.39,SE,127,2.0,2.0,100,0.00,,,0.00,Wunderground v.1.13,2013-02-07 20:42:00,
2013-02-07 15:47:00,24.8,24.8,30.39,SE,134,1.0,1.0,100,0.00,,,0.00,Wunderground v.1.13,2013-02-07 20:47:00,
2013-02-07 15:52:00,25.1,25.1,30.39,West,261,0.0,4.0,100,0.00,,,0.00,Wunderground v.1.13,2013-02-07 20:52:00,
2013-02-07 15:57:00,24.8,24.8,30.39,West,265,1.0,3.0,100,0.00,,,0.00,Wunderground v.1.13,2013-02-07 20:57:00,
2013-02-07 16:03:00,24.7,24.7,30.39,West,263,1.0,1.0,100,0.00,,,0.00,Wunderground v.1.13,2013-02-07 21:03:00,
2013-02-07 16:07:00,24.7,24.7,30.39,West,263,1.0,1.0,100,0.00,,,0.00,Wunderground v.1.13,2013-02-07 21:07:00,
2013-02-07 16:12:00,24.8,24.8,30.39,WSW,250,0.0,0.0,100,0.00,,,0.00,Wunderground v.1.13,2013-02-07 21:12:00,
2013-02-07 16:17:00,24.8,24.8,30.39,WSW,258,0.0,2.0,100,0.00,,,0.00,Wunderground v.1.13,2013-02-07 21:17:00,
2013-02-07 16:22:00,24.4,24.4,30.39,WSW,246,1.0,1.0,100,0.00,,,0.00,Wunderground v.1.13,2013-02-07 21:22:00,
2013-02-07 16:27:00,24.2,24.2,30.39,SW,236,1.0,3.0,100,0.00,,,0.00,Wunderground v.1.13,2013-02-07 21:27:00,
2013-02-07 16:32:00,24.2,24.2,30.39,WSW,239,1.0,1.0,100,0.00,,,0.00,Wunderground v.1.13,2013-02-07 21:32:00,
2013-02-07 16:37:00,24.2,24.2,30.39,SW,227,0.0,1.0,100,0.00,,,0.00,Wunderground v.1.13,2013-02-07 21:37:00,
2013-02-07 16:42:00,24.1,24.1,30.39,WSW,257,1.0,2.0,100,0.00,,,0.00,Wunderground v.1.13,2013-02-07 21:42:00,
2013-02-07 16:47:00,24.1,24.1,30.39,WSW,239,0.0,3.0,100,0.00,,,0.00,Wunderground v.1.13,2013-02-07 21:47:00,
2013-02-07 16:57:00,23.6,23.6,30.40,WSW,254,1.0,1.0,100,0.00,,,0.00,Wunderground v.1.13,2013-02-07 21:57:00,
2013-02-07 17:03:00,23.6,23.6,30.40,WSW,254,0.0,0.0,100,0.00,,,0.00,Wunderground v.1.13,2013-02-07 22:03:00,
2013-02-07 17:07:00,23.5,23.5,30.40,WNW,285,1.0,2.0,100,0.00,,,0.00,Wunderground v.1.13,2013-02-07 22:07:00,
2013-02-07 17:12:00,23.3,23.3,30.40,WNW,294,2.0,2.0,100,0.00,,,0.00,Wunderground v.1.13,2013-02-07 22:12:00,
2013-02-07 17:17:00,23.2,23.2,30.40,WNW,291,2.0,2.0,100,0.00,,,0.00,Wunderground v.1.13,2013-02-07 22:17:00,
2013-02-07 17:22:00,23.0,23.0,30.39,WNW,291,1.0,2.0,100,0.00,,,0.00,Wunderground v.1.13,2013-02-07 22:22:00,
2013-02-07 17:27:00,22.9,22.9,30.39,WNW,289,1.0,2.0,100,0.00,,,0.00,Wunderground v.1.13,2013-02-07 22:27:00,
2013-02-07 17:32:00,22.9,22.9,30.39,WNW,289,1.0,1.0,100,0.00,,,0.00,Wunderground v.1.13,2013-02-07 22:32:00,
2013-02-07 17:42:00,22.7,22.7,30.40,WNW,289,1.0,1.0,100,0.00,,,0.00,Wunderground v.1.13,2013-02-07 22:42:00,
2013-02-07 17:47:00,22.7,22.7,30.40,WNW,289,1.0,1.0,100,0.00,,,0.00,Wunderground v.1.13,2013-02-07 22:47:00,
2013-02-07 17:57:00,22.5,22.5,30.41,WNW,289,0.0,0.0,100,0.00,,,0.00,Wunderground v.1.13,2013-02-07 22:57:00,
2013-02-07 18:02:00,22.5,22.5,30.41,WNW,289,0.0,0.0,100,0.00,,,0.00,Wunderground v.1.13,2013-02-07 23:02:00,
2013-02-07 18:12:00,22.4,22.4,30.41,WNW,289,0.0,2.0,100,0.00,,,0.00,Wunderground v.1.13,2013-02-07 23:12:00,
2013-02-07 18:22:00,22.4,22.4,30.42,WNW,289,0.0,1.0,100,0.00,,,0.00,Wunderground v.1.13,2013-02-07 23:22:00,
2013-02-07 18:27:00,22.4,22.4,30.42,WNW,289,0.0,0.0,100,0.00,,,0.00,Wunderground v.1.13,2013-02-07 23:27:00,
2013-02-07 18:32:00,22.4,22.4,30.42,WNW,289,0.0,3.0,100,0.00,,,0.00,Wunderground v.1.13,2013-02-07 23:32:00,
2013-02-07 18:37:00,22.4,22.4,30.42,WNW,289,1.0,1.0,100,0.00,,,0.00,Wunderground v.1.13,2013-02-07 23:37:00,
2013-02-07 18:42:00,22.2,22.2,30.42,WNW,289,1.0,1.0,100,0.00,,,0.00,Wunderground v.1.13,2013-02-07 23:42:00,
2013-02-07 18:47:00,22.2,22.2,30.42,WNW,289,1.0,1.0,100,0.00,,,0.00,Wunderground v.1.13,2013-02-07 23:47:00,
2013-02-07 18:52:00,22.1,22.1,30.43,WNW,282,1.0,2.0,100,0.00,,,0.00,Wunderground v.1.13,2013-02-07 23:52:00,
2013-02-07 18:57:00,22.1,22.1,30.43,WNW,301,2.0,2.0,100,0.00,,,0.00,Wunderground v.1.13,2013-02-07 23:57:00,
2013-02-07 19:03:00,21.9,21.9,30.43,West,272,2.0,2.0,100,0.00,,,0.00,Wunderground v.1.13,2013-02-08 00:03:00,
2013-02-07 19:07:00,21.9,21.9,30.42,West,272,1.0,1.0,100,0.00,,,0.00,Wunderground v.1.13,2013-02-08 00:07:00,
2013-02-07 19:12:00,21.9,21.9,30.42,West,272,1.0,1.0,100,0.00,,,0.00,Wunderground v.1.13,2013-02-08 00:12:00,
2013-02-07 19:22:00,21.9,21.9,30.43,West,272,0.0,0.0,100,0.00,,,0.00,Wunderground v.1.13,2013-02-08 00:22:00,
2013-02-07 19:27:00,22.1,22.1,30.43,West,267,1.0,1.0,100,0.00,,,0.00,Wunderground v.1.13,2013-02-08 00:27:00,
2013-02-07 19:32:00,22.1,22.1,30.43,WSW,251,1.0,2.0,100,0.00,,,0.00,Wunderground v.1.13,2013-02-08 00:32:00,
2013-02-07 19:37:00,21.9,21.9,30.42,West,274,1.0,1.0,100,0.00,,,0.00,Wunderground v.1.13,2013-02-08 00:37:00,
2013-02-07 19:42:00,21.9,21.9,30.42,West,274,0.0,0.0,100,0.00,,,0.00,Wunderground v.1.13,2013-02-08 00:42:00,
2013-02-07 19:47:00,21.9,21.9,30.42,West,272,1.0,1.0,100,0.00,,,0.00,Wunderground v.1.13,2013-02-08 00:47:00,
2013-02-07 19:52:00,21.9,21.9,30.42,West,271,1.0,2.0,100,0.00,,,0.00,Wunderground v.1.13,2013-02-08 00:52:00,
2013-02-07 19:57:00,22.1,22.1,30.42,West,274,1.0,3.0,100,0.00,,,0.00,Wunderground v.1.13,2013-02-08 00:57:00,
2013-02-07 20:03:00,21.9,21.9,30.42,West,278,1.0,1.0,100,0.00,,,0.00,Wunderground v.1.13,2013-02-08 01:03:00,
2013-02-07 20:12:00,21.9,21.9,30.43,West,278,0.0,2.0,100,0.00,,,0.00,Wunderground v.1.13,2013-02-08 01:12:00,
2013-02-07 20:17:00,21.8,21.8,30.43,West,265,1.0,1.0,100,0.00,,,0.00,Wunderground v.1.13,2013-02-08 01:17:00,
2013-02-07 20:22:00,21.8,21.8,30.42,West,265,1.0,1.0,100,0.00,,,0.00,Wunderground v.1.13,2013-02-08 01:22:00,
2013-02-07 20:27:00,21.8,21.8,30.42,West,265,1.0,1.0,100,0.00,,,0.00,Wunderground v.1.13,2013-02-08 01:27:00,
2013-02-07 20:32:00,21.8,21.8,30.42,WNW,288,1.0,1.0,100,0.00,,,0.00,Wunderground v.1.13,2013-02-08 01:32:00,
2013-02-07 20:37:00,21.8,21.8,30.42,WNW,288,1.0,2.0,100,0.00,,,0.00,Wunderground v.1.13,2013-02-08 01:37:00,
2013-02-07 20:42:00,21.8,21.8,30.42,WNW,288,1.0,3.0,100,0.00,,,0.00,Wunderground v.1.13,2013-02-08 01:42:00,
2013-02-07 20:47:00,21.8,21.8,30.42,West,265,1.0,1.0,100,0.00,,,0.00,Wunderground v.1.13,2013-02-08 01:47:00,
2013-02-07 20:52:00,21.8,21.8,30.42,WNW,289,1.0,1.0,100,0.00,,,0.00,Wunderground v.1.13,2013-02-08 01:52:00,
2013-02-07 20:57:00,21.8,21.8,30.42,WNW,289,1.0,2.0,100,0.00,,,0.00,Wunderground v.1.13,2013-02-08 01:57:00,
2013-02-07 21:03:00,21.8,21.8,30.42,West,274,1.0,1.0,100,0.00,,,0.00,Wunderground v.1.13,2013-02-08 02:03:00,
2013-02-07 21:07:00,21.8,21.8,30.41,WNW,296,2.0,2.0,100,0.00,,,0.00,Wunderground v.1.13,2013-02-08 02:07:00,
2013-02-07 21:12:00,21.8,21.8,30.41,WNW,296,1.0,1.0,100,0.00,,,0.00,Wunderground v.1.13,2013-02-08 02:12:00,
2013-02-07 21:17:00,21.8,21.8,30.41,WNW,296,1.0,1.0,100,0.00,,,0.00,Wunderground v.1.13,2013-02-08 02:17:00,
2013-02-07 21:22:00,21.8,21.8,30.42,WNW,298,1.0,1.0,100,0.00,,,0.00,Wunderground v.1.13,2013-02-08 02:22:00,
2013-02-07 21:27:00,21.8,21.8,30.42,WNW,287,1.0,3.0,100,0.00,,,0.00,Wunderground v.1.13,2013-02-08 02:27:00,
2013-02-07 21:32:00,21.6,21.6,30.42,WNW,287,2.0,2.0,100,0.00,,,0.00,Wunderground v.1.13,2013-02-08 02:32:00,
2013-02-07 21:37:00,21.6,21.6,30.42,West,275,1.0,1.0,100,0.00,,,0.00,Wunderground v.1.13,2013-02-08 02:37:00,
2013-02-07 21:42:00,21.6,21.6,30.42,West,275,1.0,1.0,100,0.00,,,0.00,Wunderground v.1.13,2013-02-08 02:42:00,
2013-02-07 21:47:00,21.6,21.6,30.42,West,275,1.0,2.0,100,0.00,,,0.00,Wunderground v.1.13,2013-02-08 02:47:00,
2013-02-07 21:52:00,21.8,21.8,30.42,West,275,1.0,1.0,100,0.00,,,0.00,Wunderground v.1.13,2013-02-08 02:52:00,
2013-02-07 21:57:00,21.6,21.6,30.42,WSW,239,1.0,1.0,100,0.00,,,0.00,Wunderground v.1.13,2013-02-08 02:57:00,
2013-02-07 22:03:00,21.6,21.6,30.42,WSW,246,1.0,1.0,100,0.00,,,0.00,Wunderground v.1.13,2013-02-08 03:03:00,
2013-02-07 22:12:00,21.6,21.6,30.41,West,278,1.0,3.0,100,0.00,,,0.00,Wunderground v.1.13,2013-02-08 03:12:00,
2013-02-07 22:17:00,21.6,21.6,30.41,WNW,282,2.0,2.0,100,0.00,,,0.00,Wunderground v.1.13,2013-02-08 03:17:00,
2013-02-07 22:22:00,21.4,21.4,30.41,West,272,2.0,2.0,100,0.00,,,0.00,Wunderground v.1.13,2013-02-08 03:22:00,
2013-02-07 22:27:00,21.4,21.4,30.41,West,272,2.0,2.0,100,0.00,,,0.00,Wunderground v.1.13,2013-02-08 03:27:00,
2013-02-07 22:32:00,21.4,21.4,30.41,West,261,2.0,2.0,100,0.00,,,0.00,Wunderground v.1.13,2013-02-08 03:32:00,
2013-02-07 22:37:00,21.4,21.4,30.40,WNW,301,1.0,1.0,100,0.00,,,0.00,Wunderground v.1.13,2013-02-08 03:37:00,
2013-02-07 22:42:00,21.4,21.4,30.40,WNW,289,2.0,2.0,100,0.00,,,0.00,Wunderground v.1.13,2013-02-08 03:42:00,
2013-02-07 22:47:00,21.4,21.4,30.40,West,265,2.0,2.0,100,0.00,,,0.00,Wunderground v.1.13,2013-02-08 03:47:00,
2013-02-07 22:52:00,21.4,21.4,30.40,West,272,1.0,1.0,100,0.00,,,0.00,Wunderground v.1.13,2013-02-08 03:52:00,
2013-02-07 22:57:00,21.4,21.4,30.40,West,272,1.0,2.0,100,0.00,,,0.00,Wunderground v.1.13,2013-02-08 03:57:00,
2013-02-07 23:03:00,21.4,21.4,30.40,West,272,1.0,1.0,100,0.00,,,0.00,Wunderground v.1.13,2013-02-08 04:03:00,
2013-02-07 23:12:00,21.4,21.4,30.41,West,268,1.0,1.0,100,0.00,,,0.00,Wunderground v.1.13,2013-02-08 04:12:00,
2013-02-07 23:17:00,21.4,21.4,30.41,WNW,287,1.0,3.0,100,0.00,,,0.00,Wunderground v.1.13,2013-02-08 04:17:00,
2013-02-07 23:22:00,21.4,21.4,30.41,WNW,287,1.0,1.0,100,0.00,,,0.00,Wunderground v.1.13,2013-02-08 04:22:00,
2013-02-07 23:27:00,21.4,21.4,30.41,West,272,1.0,2.0,100,0.00,,,0.00,Wunderground v.1.13,2013-02-08 04:27:00,
2013-02-07 23:32:00,21.6,21.6,30.41,WNW,289,1.0,3.0,100,0.00,,,0.00,Wunderground v.1.13,2013-02-08 04:32:00,
2013-02-07 23:37:00,21.4,21.4,30.41,WNW,288,2.0,2.0,100,0.00,,,0.00,Wunderground v.1.13,2013-02-08 04:37:00,
2013-02-07 23:42:00,21.4,21.4,30.41,NW,306,2.0,2.0,100,0.00,,,0.00,Wunderground v.1.13,2013-02-08 04:42:00,
2013-02-07 23:52:00,21.4,21.4,30.41,WNW,292,1.0,1.0,100,0.00,,,0.00,Wunderground v.1.13,2013-02-08 04:52:00,
2013-02-07 23:57:00,21.4,21.4,30.41,WNW,292,1.0,1.0,100,0.00,,,0.00,Wunderground v.1.13,2013-02-08 04:57:00,